When you browse on this site, cookies collect data to enhance your experience and personalize the content and advertising you see.
Visit our Privacy Policy to learn more. By continuing to use the site, you agree to this use of cookies and data.
  • In Portugal
  • List of Countries
  • For 7 days
  • Water Temperature
  • Satellite Maps
  • Weather Map
  • Weather Widgets
  • user-avatar
    Login

    Hourly Weather Haskovo

    Today, 16 November, Friday

    Time Temperature Precipitation Wind Pressure Humidity
    00:00 +6°C° 0 mm 2 mps 747 mmHg 76%
    01:00 +6°C° 0 mm 2 mps 747 mmHg 78%
    02:00 +5°C° 0 mm 2 mps 747 mmHg 81%
    03:00 +5°C° 0 mm 2 mps 747 mmHg 81%
    04:00 +5°C° 0 mm 2 mps 747 mmHg 81%
    05:00 +4°C° 0 mm 2 mps 747 mmHg 81%
    06:00 +4°C° 0 mm 2 mps 748 mmHg 80%
    07:00 +4°C° 0 mm 2 mps 748 mmHg 79%
    08:00 +4°C° 0 mm 2 mps 748 mmHg 76%
    09:00 +4°C° 0 mm 3 mps 748 mmHg 70%
    10:00 +7°C° 0 mm 3 mps 748 mmHg 63%
    11:00 +7°C° 0 mm 4 mps 748 mmHg 57%
    12:00 +7°C° 0 mm 4 mps 748 mmHg 56%
    13:00 +7°C° 0 mm 4 mps 748 mmHg 54%
    14:00 +7°C° 0 mm 4 mps 748 mmHg 53%
    15:00 +6°C° 0 mm 4 mps 749 mmHg 56%
    16:00 +5°C° 0 mm 4 mps 749 mmHg 60%
    17:00 +5°C° 0 mm 4 mps 749 mmHg 63%
    18:00 +4°C° 0 mm 4 mps 749 mmHg 65%
    19:00 +3°C° 0 mm 3 mps 749 mmHg 67%
    20:00 +2°C° 0 mm 3 mps 750 mmHg 69%
    21:00 +2°C° 0 mm 3 mps 750 mmHg 71%
    22:00 +3°C° 0 mm 2 mps 750 mmHg 72%
    23:00 +2°C° 0 mm 2 mps 750 mmHg 74%

    Tomorrow, 17 November, Saturday

    Time Temperature Precipitation Wind Pressure Humidity
    00:00 +2°C° 0 mm 2 mps 750 mmHg 75%
    01:00 +1°C° 0 mm 2 mps 750 mmHg 77%
    02:00 +2°C° 0 mm 1 mps 750 mmHg 78%
    03:00 +2°C° 0 mm 1 mps 750 mmHg 79%
    04:00 +1°C° 0 mm 1 mps 750 mmHg 80%
    05:00 -1°C° 0 mm 2 mps 750 mmHg 81%
    06:00 +1°C° 0 mm 1 mps 750 mmHg 79%
    07:00 +2°C° 0 mm 1 mps 750 mmHg 77%
    08:00 +2°C° 0 mm 1 mps 750 mmHg 76%
    09:00 +2°C° 0 mm 2 mps 750 mmHg 71%
    10:00 +3°C° 0 mm 2 mps 750 mmHg 65%
    11:00 +4°C° 0 mm 2 mps 750 mmHg 60%
    12:00 +5°C° 0 mm 2 mps 750 mmHg 59%
    13:00 +5°C° 0 mm 3 mps 749 mmHg 57%
    14:00 +7°C° 0 mm 3 mps 749 mmHg 55%
    15:00 +5°C° 0 mm 3 mps 749 mmHg 58%
    16:00 +5°C° 0 mm 3 mps 749 mmHg 60%
    17:00 +5°C° 0 mm 3 mps 748 mmHg 63%
    18:00 +5°C° 0 mm 2 mps 749 mmHg 66%
    19:00 +5°C° 0 mm 2 mps 749 mmHg 69%
    20:00 +4°C° 0 mm 2 mps 749 mmHg 73%
    21:00 +4°C° 0 mm 2 mps 749 mmHg 72%
    22:00 +4°C° 0 mm 2 mps 749 mmHg 72%
    23:00 +4°C° 0 mm 2 mps 749 mmHg 72%

    Day after tomorrow, 18 November, Sunday

    Time Temperature Precipitation Wind Pressure Humidity
    00:00 +4°C° 0 mm 2 mps 749 mmHg 72%
    01:00 +5°C° 0 mm 2 mps 749 mmHg 73%
    02:00 +5°C° 0 mm 2 mps 749 mmHg 73%
    03:00 +5°C° 0 mm 2 mps 748 mmHg 74%
    04:00 +5°C° 0 mm 2 mps 748 mmHg 74%
    05:00 +5°C° 0 mm 2 mps 748 mmHg 74%
    06:00 +5°C° 0 mm 2 mps 748 mmHg 75%
    07:00 +5°C° 0 mm 2 mps 748 mmHg 75%
    08:00 +5°C° 0 mm 2 mps 748 mmHg 75%
    09:00 +6°C° 0 mm 2 mps 748 mmHg 74%
    10:00 +6°C° 0 mm 2 mps 747 mmHg 73%
    11:00 +7°C° 0 mm 2 mps 747 mmHg 72%
    12:00 +7°C° 0.1 mm 2 mps 747 mmHg 73%
    13:00 +7°C° 0.1 mm 2 mps 746 mmHg 74%
    14:00 +7°C° 0.1 mm 2 mps 745 mmHg 75%
    15:00 +7°C° 0.1 mm 2 mps 744 mmHg 77%
    16:00 +7°C° 0.1 mm 2 mps 744 mmHg 79%
    17:00 +6°C° 0.1 mm 2 mps 744 mmHg 81%
    18:00 +6°C° 0.4 mm 2 mps 743 mmHg 82%
    19:00 +6°C° 0.4 mm 2 mps 743 mmHg 83%
    20:00 +6°C° 0.4 mm 2 mps 743 mmHg 84%
    21:00 +5°C° 0.9 mm 3 mps 742 mmHg 85%
    22:00 +5°C° 0.9 mm 3 mps 742 mmHg 86%
    23:00 +5°C° 0.9 mm 3 mps 741 mmHg 87%

    19 November, Monday

    Time Temperature Precipitation Wind Pressure Humidity
    00:00 +5°C° 1.6 mm 3 mps 741 mmHg 88%
    01:00 +5°C° 1.6 mm 3 mps 740 mmHg 89%
    02:00 +5°C° 1.6 mm 3 mps 740 mmHg 89%
    03:00 +5°C° 1.5 mm 3 mps 739 mmHg 89%
    04:00 +5°C° 1.5 mm 2 mps 739 mmHg 89%
    05:00 +5°C° 1.5 mm 2 mps 739 mmHg 89%
    06:00 +5°C° 0.3 mm 2 mps 739 mmHg 89%
    07:00 +6°C° 0.3 mm 2 mps 738 mmHg 88%
    08:00 +6°C° 0.3 mm 2 mps 738 mmHg 88%
    09:00 +6°C° 0.2 mm 2 mps 738 mmHg 87%
    10:00 +6°C° 0.2 mm 2 mps 739 mmHg 85%
    11:00 +6°C° 0.2 mm 2 mps 739 mmHg 84%
    12:00 +7°C° 0.1 mm 2 mps 738 mmHg 84%
    13:00 +7°C° 0.1 mm 2 mps 738 mmHg 84%
    14:00 +8°C° 0.1 mm 1 mps 738 mmHg 84%
    15:00 +8°C° 0 mm 1 mps 738 mmHg 85%
    16:00 +8°C° 0 mm 1 mps 739 mmHg 86%
    17:00 +8°C° 0 mm 1 mps 739 mmHg 88%
    18:00 +7°C° 0 mm 1 mps 739 mmHg 88%
    19:00 +7°C° 0 mm 1 mps 739 mmHg 89%
    20:00 +7°C° 0 mm 1 mps 739 mmHg 90%
    21:00 +7°C° 0 mm 1 mps 740 mmHg 91%
    22:00 +6°C° 0 mm 0 mps 740 mmHg 91%
    23:00 +6°C° 0 mm 0 mps 740 mmHg 91%

    20 November, Tuesday

    Time Temperature Precipitation Wind Pressure Humidity
    00:00 +6°C° 0 mm 0 mps 740 mmHg 92%
    01:00 +7°C° 0 mm 1 mps 740 mmHg 92%
    02:00 +7°C° 0 mm 1 mps 740 mmHg 92%
    03:00 +7°C° 0.2 mm 1 mps 740 mmHg 93%
    04:00 +7°C° 0.2 mm 1 mps 739 mmHg 93%
    05:00 +8°C° 0.2 mm 1 mps 739 mmHg 94%
    06:00 +7°C° 0.5 mm 2 mps 739 mmHg 94%
    07:00 +7°C° 0.5 mm 2 mps 739 mmHg 94%
    08:00 +8°C° 0.5 mm 2 mps 739 mmHg 94%
    09:00 +8°C° 0.1 mm 2 mps 739 mmHg 92%
    10:00 +9°C° 0.1 mm 3 mps 738 mmHg 91%
    11:00 +10°C° 0.1 mm 3 mps 738 mmHg 89%
    12:00 +11°C° 0.1 mm 3 mps 738 mmHg 90%
    13:00 +11°C° 0.1 mm 3 mps 737 mmHg 90%
    14:00 +12°C° 0.1 mm 3 mps 736 mmHg 90%
    15:00 +12°C° 0.2 mm 4 mps 736 mmHg 91%
    16:00 +13°C° 0.2 mm 4 mps 736 mmHg 91%
    17:00 +13°C° 0.2 mm 4 mps 736 mmHg 91%
    18:00 +13°C° 0.1 mm 4 mps 735 mmHg 91%
    19:00 +13°C° 0.1 mm 4 mps 735 mmHg 91%
    20:00 +14°C° 0.1 mm 4 mps 735 mmHg 92%
    21:00 +14°C° 0 mm 4 mps 735 mmHg 91%
    22:00 +14°C° 0 mm 4 mps 735 mmHg 91%
    23:00 +14°C° 0 mm 5 mps 735 mmHg 90%

    21 November, Wednesday

    Time Temperature Precipitation Wind Pressure Humidity
    00:00 +14°C° 0.1 mm 5 mps 734 mmHg 89%
    01:00 +14°C° 0.1 mm 5 mps 734 mmHg 88%
    02:00 +14°C° 0.1 mm 5 mps 734 mmHg 87%
    03:00 +14°C° 0 mm 5 mps 734 mmHg 88%
    04:00 +14°C° 0 mm 5 mps 733 mmHg 88%
    05:00 +14°C° 0 mm 5 mps 733 mmHg 89%
    06:00 +14°C° 0 mm 4 mps 733 mmHg 89%
    07:00 +14°C° 0 mm 4 mps 733 mmHg 89%
    08:00 +14°C° 0 mm 4 mps 733 mmHg 90%
    09:00 +15°C° 0 mm 4 mps 733 mmHg 82%
    10:00 +17°C° 0 mm 5 mps 734 mmHg 74%
    11:00 +19°C° 0 mm 5 mps 734 mmHg 66%
    12:00 +19°C° 0 mm 5 mps 734 mmHg 61%
    13:00 +20°C° 0 mm 5 mps 733 mmHg 57%
    14:00 +20°C° 0 mm 5 mps 733 mmHg 53%
    15:00 +19°C° 0 mm 5 mps 733 mmHg 59%
    16:00 +18°C° 0 mm 4 mps 734 mmHg 64%
    17:00 +17°C° 0 mm 3 mps 734 mmHg 70%
    18:00 +16°C° 0 mm 3 mps 734 mmHg 72%
    19:00 +16°C° 0 mm 3 mps 735 mmHg 74%
    20:00 +14°C° 0 mm 3 mps 735 mmHg 76%
    21:00 +14°C° 0 mm 3 mps 735 mmHg 77%
    22:00 +14°C° 0 mm 2 mps 736 mmHg 79%
    23:00 +14°C° 0 mm 2 mps 736 mmHg 80%
    Show more